User: anonymous   Login
Location: Niverville
(49.6028°N, 97.0419°W)
Time: 05:37:44
(UTC-05:00)
Language:

Cosmos 2237 Rocket - Orbit

View from above orbital plane
View from above orbital plane
View from above satellite
View from above satellite

Ground track
Ground track

The orbit data is extracted from the following two-line orbital elements,

1 22566U 93016B   15214.86947222 -.00000258  00000-0 -10875-3 0  9994
2 22566 071.0076 063.2971 0007982 095.3342 264.8691 14.14907915154472
Epoch (UTC): 02 August 2015 20:52:02
Eccentricity: 0.0007982
inclination: 71.0076°
perigee height: 837 km
apogee height: 848 km
right ascension of ascending node: 63.2971°
argument of perigee: 95.3342°
revolutions per day: 14.14907915
mean anomaly at epoch: 264.8691°
orbit number at epoch: 15447

The dashed part of the orbit path shows where the satellite is in the earth's shadow,  

DLR